Location: Peebles
(55.6412°N, 3.1714°W)
Time: 15:46:51
(UTC+01:00)

deb Agena D - Pass Details

Date: 25 September 2024
Orbit: 793 x 976 km, 99.8° (Epoch: 03 October)

Event Time Altitude Azimuth Distance (km) Brightness Sun altitude
Rises 05:31:34 0° 15° (NNE) 3,471 9.9 -13.7°
Reaches altitude 10° 05:34:18 10° 3° (N) 2,560 9.0 -13.4°
Maximum altitude 05:38:46 24° 311° (NW) 1,780 7.6 -12.8°
Enters shadow 05:42:03 15° 269° (W) 2,268 7.8 -12.3°
